Content
SEND FEEDBACK

Daily
Averages
Monthly
Summary
United States of America

RED BUD, ILLINOIS


Home > North America > United States > Illinois
Elevation: 134 meters     Latitude: 38 13N     Longitude: 090 00W

WEATHER
 
SELECT A DAY
Number of Records: 339,202;   Date Range: 7/17/01 - 12/24/14
 
SHARE

PRINT THIS DATA

[ ← Previous Day ]
WEATHER ALMANAC - 31 JANUARY, 2013
[ Next Day → ]
[ °F ]   °C
Weather ElementAverageHighLow
Temperature-2.4 °C3 °C (1:55 pm)-10 °C (11:55 pm)
Dewpoint-7.7 °C-1 °C (3:15 pm)-18 °C (10:55 pm)
Humidity68 %93 % (4:15 pm)49 % (10:15 pm)
Barometer1018.6 hPa1028.4 hPa (11:55 pm)1013.9 hPa (12:35 am)
Wind Speed22.2 km/h37 km/h (4:55 pm)
Wind Gust53.8 km/h (10:15 pm)
Weather ElementAverage
Visibility15.6 km
Wind DirectionW (274.5 °)

Weather ElementTotal
Precipitation---
Heating Degree Days21.8 (Base 18.3)
Averaged from 71 records on 31 January, 2013
WEATHER CONDITIONS BREAKOUT
WIND DIRECTION BREAKOUT
WEATHER BY HOUR - 31 JANUARY, 2013
[ °F ]   °C
Local TimeTemperatureDewpointHumidityBarometerVisibilityWind DirectionWind SpeedGust SpeedPrecipitationEventsConditions
12:35 AM-2 °C-6 °C74 %1013.9 hPa16.1 kmWest (270°)24.1 km/h29.6 km/hOvercast
12:55 AM-2 °C-7 °C69 %1013.9 hPa16.1 kmWest (280°)22.2 km/h40.7 km/hOvercast
1:15 AM-2 °C-6 °C74 %1014.2 hPa16.1 kmWest (270°)20.4 km/h31.5 km/hOvercast
1:35 AM-2 °C-6 °C74 %1014.2 hPa16.1 kmWest (280°)20.4 km/h29.6 km/hOvercast
1:55 AM-2 °C-6 °C74 %1014.2 hPa16.1 kmWest (270°)29.6 km/h40.7 km/hOvercast
2:15 AM-2 °C-7 °C69 %1014.6 hPa16.1 kmWest (270°)25.9 km/h46.3 km/hOvercast
2:35 AM-2 °C-7 °C69 %1014.6 hPa16.1 kmWest (280°)18.5 km/h33.3 km/hOvercast
2:55 AM-2 °C-7 °C69 %1014.2 hPa16.1 kmWest (270°)20.4 km/h37 km/hOvercast
3:15 AM-2 °C-7 °C69 %1014.2 hPa16.1 kmWest (280°)24.1 km/h31.5 km/hOvercast
3:35 AM-2 °C-8 °C64 %1014.2 hPa16.1 kmWest (270°)22.2 km/h35.2 km/hOvercast
3:55 AM-2 °C-7 °C69 %1014.6 hPa16.1 kmWest (270°)22.2 km/h31.5 km/hOvercast
4:15 AM-2 °C-7 °C69 %1014.9 hPa16.1 kmWest (270°)24.1 km/h33.3 km/hOvercast
4:35 AM-2 °C-7 °C69 %1014.6 hPa16.1 kmWest (280°)22.2 km/h35.2 km/hOvercast
4:55 AM-2 °C-7 °C69 %1014.6 hPa16.1 kmWest (260°)20.4 km/h27.8 km/hOvercast
5:15 AM-2 °C-6 °C74 %1014.9 hPa16.1 kmWest (260°)16.7 km/hOvercast
5:35 AM-2 °C-6 °C74 %1014.9 hPa16.1 kmWest (260°)14.8 km/hOvercast
5:55 AM-2 °C-6 °C74 %1014.9 hPa16.1 kmWest (260°)22.2 km/h29.6 km/hOvercast
6:15 AM-2 °C-6 °C74 %1015.2 hPa16.1 kmWest (260°)13 km/hOvercast
6:35 AM-2 °C-6 °C74 %1015.6 hPa16.1 kmWSW (250°)13 km/hOvercast
6:55 AM-2 °C-6 °C74 %1015.9 hPa16.1 kmWSW (250°)14.8 km/hOvercast
7:15 AM-2 °C-6 °C74 %1015.9 hPa16.1 kmWSW (250°)13 km/hOvercast
7:35 AM-2 °C-6 °C74 %1016.3 hPa16.1 kmWSW (250°)14.8 km/h25.9 km/hOvercast
7:55 AM-2 °C-6 °C74 %1016.3 hPa16.1 kmWest (260°)18.5 km/h27.8 km/hOvercast
8:15 AM-2 °C-6 °C74 %1016.6 hPa16.1 kmWSW (250°)13 km/hOvercast
8:35 AM-2 °C-6 °C74 %1017.3 hPa16.1 kmWest (260°)13 km/hOvercast
8:55 AM-1 °C-6 °C69 %1017.3 hPa16.1 kmWSW (250°)16.7 km/hOvercast
9:15 AM-1 °C-6 °C69 %1017.6 hPa16.1 kmWSW (250°)11.1 km/hOvercast
9:35 AM-1 °C-7 °C64 %1017.6 hPa16.1 kmWest (260°)16.7 km/hOvercast
9:55 AM-1 °C-7 °C64 %1017.9 hPa16.1 kmWSW (250°)14.8 km/hOvercast
10:15 AM-1 °C-7 °C64 %1018.3 hPa16.1 kmWSW (240°)16.7 km/hOvercast
10:35 AM-1 °C-6 °C69 %1018.3 hPa16.1 kmWSW (240°)14.8 km/hMostly Cloudy
10:55 AM0 °C-7 °C60 %1017.9 hPa16.1 kmWSW (240°)14.8 km/h27.8 km/hMostly Cloudy
11:15 AM0 °C-7 °C60 %1017.6 hPa16.1 kmWSW (240°)16.7 km/hMostly Cloudy
11:35 AM1 °C-6 °C60 %1017.3 hPa16.1 kmWSW (240°)18.5 km/h29.6 km/hMostly Cloudy
11:55 AM1 °C-6 °C60 %1016.9 hPa16.1 kmWest (260°)18.5 km/h29.6 km/hScattered Clouds
12:15 PM2 °C-6 °C56 %1016.9 hPa16.1 kmWSW (250°)18.5 km/h27.8 km/hMostly Cloudy
12:35 PM2 °C-7 °C52 %1016.6 hPa16.1 kmWest (270°)18.5 km/h27.8 km/hMostly Cloudy
12:55 PM2 °C-6 °C56 %1016.3 hPa16.1 kmWest (270°)13 km/hOvercast
1:15 PM2 °C-6 °C56 %1015.9 hPa16.1 kmWest (270°)18.5 km/h27.8 km/hMostly Cloudy
1:35 PM2 °C-6 °C56 %1015.9 hPa16.1 kmWSW (250°)16.7 km/hScattered Clouds
1:55 PM3 °C-5 °C56 %1015.9 hPa16.1 kmWest (280°)14.8 km/h27.8 km/hScattered Clouds
2:15 PM2 °C-6 °C56 %1016.3 hPa16.1 kmWest (270°)14.8 km/hScattered Clouds
2:35 PM2 °C-5 °C60 %1016.3 hPa16.1 kmWest (280°)25.9 km/h35.2 km/hScattered Clouds
2:55 PM2 °C-2 °C75 %1016.6 hPa16.1 kmWest (280°)25.9 km/h37 km/hMostly Cloudy
3:15 PM1 °C-1 °C87 %1017.3 hPa11.3 kmWest (280°)29.6 km/h37 km/hSnowLight Snow
3:35 PM1 °C-1 °C87 %1017.6 hPa11.3 kmWest (270°)29.6 km/h40.7 km/hSnowLight Snow
3:55 PM1 °C-1 °C87 %1017.6 hPa16.1 kmWest (270°)29.6 km/h40.7 km/hSnowLight Snow
4:15 PM0 °C-1 °C93 %1017.9 hPa16.1 kmWest (270°)25.9 km/h42.6 km/hMostly Cloudy
4:35 PM0 °C-2 °C87 %1018.3 hPa11.3 kmWest (280°)27.8 km/h42.6 km/hSnowLight Snow
4:55 PM-1 °C-2 °C93 %1018.6 hPa4.8 kmWest (270°)37 km/h51.8 km/hSnowLight Snow
5:15 PM-2 °C-3 °C93 %1019.3 hPa2.4 kmWNW (290°)33.3 km/h50.1 km/hSnowLight Snow
5:35 PM-2 °C-4 °C86 %1020 hPa16.1 kmWNW (300°)25.9 km/h40.7 km/hSnowLight Snow
5:55 PM-4 °C-9 °C69 %1021 hPa16.1 kmNW (310°)25.9 km/h44.4 km/hOvercast
6:15 PM-4 °C-10 °C64 %1021.3 hPa16.1 kmWNW (300°)24.1 km/h42.6 km/hOvercast
6:35 PM-5 °C-9 °C74 %1022 hPa16.1 kmWNW (300°)27.8 km/h44.4 km/hScattered Clouds
6:55 PM-6 °C-9 °C80 %1022.4 hPa16.1 kmNW (310°)25.9 km/h38.9 km/hClear
7:15 PM-6 °C-11 °C68 %1023 hPa16.1 kmNW (310°)25.9 km/h40.7 km/hClear
7:35 PM-6 °C-13 °C58 %1023.4 hPa16.1 kmWNW (290°)20.4 km/h35.2 km/hClear
7:55 PM-7 °C-14 °C58 %1023.7 hPa16.1 kmWNW (300°)29.6 km/h48.1 km/hClear
8:15 PM-7 °C-14 °C58 %1024.4 hPa16.1 kmWNW (300°)29.6 km/h42.6 km/hClear
8:35 PM-7 °C-14 °C58 %1024.7 hPa16.1 kmWNW (300°)33.3 km/h40.7 km/hScattered Clouds
8:55 PM-7 °C-14 °C58 %1025.1 hPa16.1 kmNW (310°)24.1 km/h46.3 km/hScattered Clouds
9:15 PM-7 °C-13 °C63 %1025.4 hPa16.1 kmWNW (300°)24.1 km/h33.3 km/hMostly Cloudy
9:35 PM-8 °C-13 °C68 %1025.7 hPa16.1 kmWNW (300°)24.1 km/h40.7 km/hOvercast
9:55 PM-8 °C-13 °C68 %1026.4 hPa16.1 kmNW (310°)25.9 km/h40.7 km/hMostly Cloudy
10:15 PM-8 °C-17 °C49 %1026.4 hPa16.1 kmWNW (290°)31.5 km/h53.8 km/hScattered Clouds
10:35 PM-8 °C-17 °C49 %1027.1 hPa16.1 kmWNW (300°)31.5 km/h48.1 km/hClear
10:55 PM-9 °C-18 °C49 %1027.4 hPa16.1 kmWNW (300°)33.3 km/h44.4 km/hClear
11:15 PM-9 °C-17 °C53 %1027.8 hPa16.1 kmNW (310°)25.9 km/h42.6 km/hClear
11:35 PM-9 °C-17 °C53 %1028.1 hPa16.1 kmWNW (300°)31.5 km/h42.6 km/hClear
11:55 PM-10 °C-16 °C62 %1028.4 hPa16.1 kmWNW (300°)27.8 km/h40.7 km/hClear
Hourly data recorded from KSAR, located 0 kilometers away from Red Bud, Illinois







STORIES FROM OUR PARTNERS